Regional Weather Roundup
Issued by NWS

Home | Current Version | Previous Version | Text Only | Print | Product List | Glossary On
Versions: 1 2 3 4 5 6 7 8 9 10 11 12 13 14 15 16 17 18 19 20 21 22 23 24 25 26 27 28 29 30 31 32 33 34 35 36 37 38 39 40 41 42 43 44 45 46 47 48 49 50
000
ASUS44 KEWX 242111
RWRTX
SOUTH TEXAS REGIONAL WEATHER ROUNDUP
NATIONAL WEATHER SERVICE AUSTIN/SAN ANTONIO TX
400 PM CDT SUN MAY 24 2015

NOTE: "FAIR" INDICATED FEW OR NO CLOUDS BELOW 12,000 FEET WITH NO
SIGNIFICANT WEATHER AND/OR OBSTRUCTIONS TO VISIBILITY.

* - THESE STATIONS ARE NOT NWS OR FAA STATIONS...AND ARE NOT SUBJECT
    TO NWS AND FAA QUALITY CONTROL.

TXZ171-172-183>190-242200-
TEXAS HILL COUNTRY AND EDWARDS PLATEAU

CITY           SKY/WX    TMP DP  RH WIND       PRES   REMARKS
JUNCTION       MOSUNNY   82  63  52 SW6       29.86F
*LLANO         MOSUNNY   81  70  69 SE8       29.88F
BURNET         MOSUNNY   78  67  68 MISG      29.88F
*HORSESHOE BAY MOSUNNY   81  69  66 S7        29.86F
*KERRVILLE     MOSUNNY   82  69  66 S10       29.88F
*FREDERICKSBRG PTSUNNY   80  65  61 S10       29.87F
*ROCKSPRINGS   MOSUNNY   82  63  51 SW5       29.91F
*BOERNE STAGE    N/A     77  66  69 S8        29.89F
*CASTROVILLE   PTSUNNY   84  65  52 S5        29.86F
HONDO          PTSUNNY   82  68  62 S7        29.86F
*UVALDE        MOSUNNY   83  68  61 W6        29.85F
DEL RIO        SUNNY     86  62  44 CALM      29.81F
LAUGHLIN AFB   NOT AVBL
CARRIZO SPRGS  SUNNY     88  66  48 SW3       29.80F HX  90
$$

TXZ173-191>194-202-209-217>225-228-242200-
CENTRAL AND SOUTH CENTRAL TEXAS

CITY           SKY/WX    TMP DP  RH WIND       PRES   REMARKS
GEORGETOWN     PTSUNNY   81  70  69 S10       29.86F
AUSTIN/BERGSTM PTSUNNY   78  71  79 S10       29.86F
AUSTIN/MABRY     N/A    N/A N/A N/A MISG      29.87F
*AUSTIN/EXEC   CLOUDY    81  70  69 S13G20    29.87F
*LAGO VISTA    PTSUNNY   79  68  68 S5        29.88F
SAN MARCOS     CLOUDY    81  68  65 S16       29.87F
NEW BRAUNFELS  CLOUDY    83  71  67 S14       29.85F
RANDOLPH AFB   MOSUNNY   81  70  69 S13G20    29.85F
PT SAN ANTONIO MOSUNNY   83  70  63 S8        29.84F
SAN ANTONIO    MOSUNNY   81  69  67 SE6       29.86F
STINSON FIELD  PTSUNNY   82  71  69 S12       29.83F
*PLEASANTON    MOSUNNY   86  70  58 S10       29.84F HX  90
*LA GRANGE     CLOUDY    83  72  69 S10       29.86F
*GIDDINGS      CLOUDY    79  68  70 S10G17    29.91F
*GONZALES      CLOUDY    82  71  68 S9        29.86F
$$

TXZ163>164-176>182-195>201-210>213-226-227-235-242200-
SOUTHEAST TEXAS

CITY           SKY/WX    TMP DP  RH WIND       PRES   REMARKS
COLLEGE STN    CLOUDY    79  68  69 S10       29.88F
*BRYAN         CLOUDY    78  71  79 S8        29.89F
*CALDWELL      DRIZZLE   77  72  83 CALM      29.91F
*CROCKETT      NOT AVBL
*BRENHAM       CLOUDY    82  71  67 S13       29.88F
HUNTSVILLE     CLOUDY    80  69  69 S8G16     29.89F
CONROE         CLOUDY    79  67  66 SE13      29.90F
HOUSTON BUSH   CLOUDY    79  70  74 SE12G18   29.90F
HOUSTON HOBBY  CLOUDY    79  70  74 S8        29.90F
*HOUSTON SW AP NOT AVBL
PEARLAND       CLOUDY    80  69  69 S8        29.92F
HOUSTON HOOKS  CLOUDY    80  69  69 VRB7      29.90F
ELLINGTON FLD  CLOUDY    81  72  74 S9        29.92F
SUGAR LAND     CLOUDY    80  70  71 S10       29.89F
*HOUSTON EXEC  CLOUDY    81  68  65 S13       29.91F
*CLEVELAND MUN CLOUDY    79  71  75 S7        29.92F
*WHARTON       PTSUNNY   80  70  71 SE12      29.90F
*COLUMBUS      PTSUNNY   81  71  72 S12       29.88F
$$

TXZ214>216-236>238-242200-
THE UPPER TEXAS COAST

CITY           SKY/WX    TMP DP  RH WIND       PRES   REMARKS
*ORANGE        DRIZZLE   74  70  86 E5        29.92F
PORT ARTHUR    CLOUDY    75  72  90 W5        29.92S
GALVESTON      CLOUDY    78  72  81 S9        29.92F
ANGLETON       CLOUDY    77  70  79 S10       29.90F
*BAY CITY      PTSUNNY   81  73  75 S9        29.90F
PALACIOS       CLOUDY    80  71  74 S14       29.89F
$$

TXZ229>234-239>247-242200-
TEXAS COASTAL BEND AND RIO GRANDE PLAINS

CITY           SKY/WX    TMP DP  RH WIND       PRES   REMARKS
VICTORIA       PTSUNNY   83  70  64 S17G23    29.87F
*BEEVILLE      PTSUNNY   85  71  61 S18G25    29.85F HX  90
ROCKPORT       SUNNY     84  71  65 S15G22    29.86F
*PORT ARANSAS  PTSUNNY   82  74  77 S15G21    29.87F
*PORT LAVACA   PTSUNNY   81  72  72 S16       29.88F
*INGLESIDE     SUNNY     85  73  66 S20       29.86F HX  92
CORPUS CHRISTI MOSUNNY   84  75  74 S22G30    29.85F HX  92
CORPUS NAS     PTSUNNY   85  77  77 SE16G24   29.84  HX  95
*ROBSTOWN      SUNNY     87  75  68 SE15G23   29.84F HX  96
ALICE          MOSUNNY   91  71  51 S17G24    29.83F HX  97
KINGSVILLE NAS NOT AVBL
COTULLA        MOSUNNY   87  67  51 S7        29.81F HX  90
*FAITH RANCH     N/A     90  68  48 CALM      29.81F HX  93
LAREDO         SUNNY     89  71  55 S5        29.83F HX  95
$$

TXZ248>255-242200-
DEEP SOUTH TEXAS

CITY           SKY/WX    TMP DP  RH WIND       PRES   REMARKS
BROWNSVILLE    SUNNY     87  72  60 S17G26    29.87F HX  93
PORT ISABEL    SUNNY     86  29  12 S20       29.86F
*SOUTH PADRE     N/A    104 N/A N/A SW14      29.87F
HARLINGEN      CLOUDY    86  74  67 S21G28    29.85F HX  94
*HEBBRONVILLE    N/A     88  70  56 SE13      29.84F HX  92
MCALLEN        MOSUNNY   90  76  63 S14G21    29.84F HX 101
*WESLACO       MOSUNNY   88  73  61 S15G22    29.84F HX  96
FALFURRIAS     PTSUNNY   87  74  63 SE13G20   29.83F HX  95
EDINBURG       MOSUNNY   91  74  56 S14       29.84F HX 100
*ZAPATA        SUNNY     88  71  55 SE7       29.81F HX  93
$$

TXZ213>215-236>238-242>244-246-247-251-254-255-242200-
CMAN STATIONS

STATION/POSITION TIME  TEMP    WIND        PRES    WAVE
                       AIR SEA DIR/SP/G            HT/PER
                 (UTC) (F)     (DEG/KT/KT) (MB)    (FT/S)
$$

GMZ080-GMZ150>470-242200-
OFFSHORE BUOY REPORTS

STATION/POSITION TIME  TEMP    WIND        PRES    WAVE
                       AIR SEA DIR/SP/G            HT/PER
                 (UTC) (F)     (DEG/KT/KT) (MB)    (FT/S)
$$



USA.gov is the U.S. government's official web portal to all federal, state and local government web resources and services.